Location: Newark
(7.0858°N, 171.3717°E)
Time: 17:40:48
(UTC+00:00)

Transit 2A - Pass Details

Date: 27 November 2020
Orbit: 598 x 960 km, 66.7° (Epoch: 20 January)

Event Time Altitude Azimuth Distance (km) Brightness Sun altitude
Rises 15:26:32 0° 11° (N) 2,996 - -43.4°
Reaches altitude 10° 15:30:11 10° 40° (NE) 2,018 - -42.5°
Maximum altitude 15:32:09 13° 66° (ENE) 1,819 - -42.1°
Drops below altitude 10° 15:34:04 10° 92° (E) 1,966 - -41.6°
Exits shadow 15:34:54 - 101° (ESE) 2,123 9.0 -41.4°
Sets 15:37:31 0° 121° (ESE) 2,842 9.8 -40.8°
